FW9002 Weather Reports


Display with metric or nautical units.
time (UTC)temp
F
wind
direction
speed
MPH
gust
MPH
rain 1hr
in
rain 24hr
in
rain mn
in
humidity
%
barometer
mb
20260904211854 98 197 1.0 2.0 0.00 0.00 0.00 30 1012.4
20260904211349 98 266 3.0 3.0 0.00 0.00 0.00 32 1012.4
20260904210844 98 284 2.0 2.0 0.00 0.00 0.00 29 1012.5
20260904210344 97 336 2.0 2.0 0.00 0.00 0.00 31 1012.6
20260904205840 97 267 3.0 3.0 0.00 0.00 0.00 29 1012.4
20260904205335 97 320 2.0 2.0 0.00 0.00 0.00 31 1012.7
20260904204832 95 298 2.0 2.0 0.00 0.00 0.00 31 1012.5
20260904204328 95 56 3.0 3.0 0.00 0.00 0.00 32 1012.5
20260904203824 96 311 2.0 2.0 0.00 0.00 0.00 32 1012.6
20260904203320 96 6 3.0 5.0 0.00 0.00 0.00 31 1013.0
20260904202815 96 358 4.0 5.0 0.00 0.00 0.00 30 1013.1
20260904202311 96 163 0.0 0.0 0.00 0.00 0.00 30 1013.0
20260904201807 96 63 2.0 2.0 0.00 0.00 0.00 32 1013.3
20260904201301 96 292 5.0 6.0 0.00 0.00 0.00 31 1013.2
20260904200756 95 317 1.0 1.0 0.00 0.00 0.00 30 1013.2
20260904200250 95 53 3.0 3.0 0.00 0.00 0.00 32 1013.4
20260904195749 95 314 3.0 5.0 0.00 0.00 0.00 33 1013.5
20260904195248 94 78 0.0 0.0 0.00 0.00 0.00 36 1013.3
20260904194743 94 1 2.0 2.0 0.00 0.00 0.00 36 1013.8
20260904194242 93 234 3.0 3.0 0.00 0.00 0.00 37 1013.5
20260904193738 94 221 2.0 3.0 0.00 0.00 0.00 37 1013.8
20260904193233 94 227 1.0 1.0 0.00 0.00 0.00 37 1013.9
20260904192728 93 97 0.0 0.0 0.00 0.00 0.00 37 1013.5
20260904192224 93 158 1.0 2.0 0.00 0.00 0.00 38 1014.1
20260904191720 93 240 5.0 7.0 0.00 0.00 0.00 38 1014.0
20260904191216 94 30 1.0 1.0 0.00 0.00 0.00 37 1014.2
20260904190713 94 252 4.0 5.0 0.00 0.00 0.00 37 1014.4
20260904190208 93 273 2.0 2.0 0.00 0.00 0.00 38 1014.6
20260904185705 92 138 1.0 1.0 0.00 0.00 0.00 40 1014.3
20260904185159 92 216 3.0 5.0 0.00 0.00 0.00 40 1014.3
20260904184658 92 179 1.0 1.0 0.00 0.00 0.00 40 1014.7
20260904184154 92 208 5.0 6.0 0.00 0.00 0.00 40 1014.4
20260904183650 93 198 4.0 6.0 0.00 0.00 0.00 40 1014.6
20260904183149 92 156 1.0 2.0 0.00 0.00 0.00 43 1014.8
20260904182645 92 229 2.0 2.0 0.00 0.00 0.00 42 1014.9
20260904182139 92 199 3.0 5.0 0.00 0.00 0.00 42 1014.7
20260904181635 91 190 0.0 1.0 0.00 0.00 0.00 44 1014.7
20260904181130 91 124 0.0 0.0 0.00 0.00 0.00 43 1014.8
20260904180625 91 87 1.0 1.0 0.00 0.00 0.00 44 1014.9
20260904180120 91 301 3.0 3.0 0.00 0.00 0.00 44 1014.9
20260904175619 91 136 0.0 0.0 0.00 0.00 0.00 45 1015.2
20260904175118 91 159 2.0 2.0 0.00 0.00 0.00 45 1015.3
20260904174613 90 169 0.0 0.0 0.00 0.00 0.00 47 1015.2
20260904174109 89 226 3.0 2.0 0.00 0.00 0.00 46 1015.4
20260904173609 89 246 2.0 3.0 0.00 0.00 0.00 47 1015.4
20260904173105 89 263 4.0 5.0 0.00 0.00 0.00 47 1015.5
20260904172601 89 125 1.0 1.0 0.00 0.00 0.00 47 1015.6
20260904172100 89 238 2.0 2.0 0.00 0.00 0.00 47 1015.8
20260904171555 88 321 3.0 5.0 0.00 0.00 0.00 49 1015.5
20260904171051 88 100 2.0 2.0 0.00 0.00 0.00 49 1015.8
20260904170546 89 197 1.0 1.0 0.00 0.00 0.00 48 1015.8
20260904170043 89 200 3.0 3.0 0.00 0.00 0.00 49 1015.7
20260904165541 89 181 6.0 7.0 0.00 0.00 0.00 48 1015.6
20260904165040 88 254 4.0 5.0 0.00 0.00 0.00 49 1015.4
20260904164536 89 119 3.0 2.0 0.00 0.00 0.00 49 1015.6
20260904164032 88 127 1.0 2.0 0.00 0.00 0.00 50 1015.4
20260904163531 87 89 1.0 1.0 0.00 0.00 0.00 54 1015.4
20260904163026 87 210 4.0 5.0 0.00 0.00 0.00 52 1015.6
20260904162521 87 196 5.0 7.0 0.00 0.00 0.00 52 1015.6
20260904162016 86 215 3.0 2.0 0.00 0.00 0.00 53 1015.5
20260904161511 86 225 1.0 1.0 0.00 0.00 0.00 55 1015.5
20260904161007 85 165 1.0 1.0 0.00 0.00 0.00 56 1015.6
20260904160501 85 138 2.0 3.0 0.00 0.00 0.00 55 1015.5
20260904155956 85 87 0.0 0.0 0.00 0.00 0.00 55 1015.6
20260904155451 85 186 0.0 1.0 0.00 0.00 0.00 55 1015.5
20260904154949 84 94 1.0 1.0 0.00 0.00 0.00 58 1015.6
20260904154444 83 241 0.0 0.0 0.00 0.00 0.00 60 1015.5
20260904153939 83 235 3.0 2.0 0.00 0.00 0.00 58 1015.7
20260904153434 84 167 1.0 1.0 0.00 0.00 0.00 58 1015.4
20260904152931 84 180 2.0 3.0 0.00 0.00 0.00 57 1015.4
20260904152426 85 210 1.0 2.0 0.00 0.00 0.00 56 1015.7
20260904151925 84 157 3.0 3.0 0.00 0.00 0.00 56 1015.4
20260904151421 84 259 1.0 1.0 0.00 0.00 0.00 57 1015.4
20260904150915 84 243 3.0 3.0 0.00 0.00 0.00 57 1015.3
20260904150410 84 178 1.0 2.0 0.00 0.00 0.00 58 1015.4
20260904145908 84 161 1.0 1.0 0.00 0.00 0.00 57 1015.3
20260904145404 83 125 0.0 0.0 0.00 0.00 0.00 58 1015.4
20260904144900 84 189 2.0 2.0 0.00 0.00 0.00 58 1015.4
20260904144355 84 102 0.0 0.0 0.00 0.00 0.00 58 1015.4
20260904143851 84 102 1.0 1.0 0.00 0.00 0.00 58 1015.2
20260904143348 84 102 2.0 2.0 0.00 0.00 0.00 58 1015.2
20260904142843 83 108 0.0 0.0 0.00 0.00 0.00 60 1015.5
20260904142339 82 108 0.0 0.0 0.00 0.00 0.00 60 1015.2
20260904141833 82 110 0.0 0.0 0.00 0.00 0.00 60 1015.2
20260904141329 81 111 0.0 0.0 0.00 0.00 0.00 62 1015.2
20260904140825 80 114 0.0 0.0 0.00 0.00 0.00 64 1014.9
20260904140320 79 114 0.0 0.0 0.00 0.00 0.00 66 1015.2
20260904135819 78 121 0.0 0.0 0.00 0.00 0.00 67 1015.0
20260904135314 78 122 0.0 0.0 0.00 0.00 0.00 67 1015.0
20260904134810 77 128 0.0 0.0 0.00 0.00 0.00 69 1014.7
20260904134310 77 128 0.0 0.0 0.00 0.00 0.00 69 1014.8
20260904133804 77 128 1.0 1.0 0.00 0.00 0.00 69 1014.6
20260904133300 77 132 0.0 0.0 0.00 0.00 0.00 69 1014.4
20260904132800 77 185 1.0 1.0 0.00 0.00 0.00 70 1014.5
20260904132255 76 144 1.0 1.0 0.00 0.00 0.00 70 1014.5
20260904131754 76 133 1.0 1.0 0.00 0.00 0.00 70 1014.4
20260904131250 77 133 0.0 0.0 0.00 0.00 0.00 70 1014.3
20260904130750 77 126 0.0 0.0 0.00 0.00 0.00 69 1014.1
20260904130249 77 169 1.0 1.0 0.00 0.00 0.00 69 1014.0
20260904125746 77 172 1.0 1.0 0.00 0.00 0.00 69 1014.1
20260904125241 77 183 1.0 1.0 0.00 0.00 0.00 69 1013.8
20260904124740 77 177 1.0 1.0 0.00 0.00 0.00 69 1013.6
20260904124237 77 147 0.0 0.0 0.00 0.00 0.00 69 1013.5
20260904123732 77 180 1.0 1.0 0.00 0.00 0.00 69 1013.8
20260904123227 77 205 1.0 1.0 0.00 0.00 0.00 69 1013.5
20260904122722 77 191 1.0 1.0 0.00 0.00 0.00 70 1013.5
20260904122216 77 183 0.0 0.0 0.00 0.00 0.00 72 1013.2
20260904121712 77 183 0.0 0.0 0.00 0.00 0.00 72 1013.4
20260904121207 77 183 0.0 0.0 0.00 0.00 0.00 71 1013.4
20260904120703 77 183 0.0 0.0 0.00 0.00 0.00 71 1013.4
20260904120159 77 184 0.0 0.0 0.00 0.00 0.00 70 1013.3
20260904115655 77 184 0.0 0.0 0.00 0.00 0.00 69 1013.3
20260904115149 77 184 0.0 0.0 0.00 0.00 0.00 69 1013.2
20260904114644 77 184 0.0 0.0 0.00 0.00 0.00 69 1013.3
20260904114143 77 184 0.0 0.0 0.00 0.00 0.00 68 1013.3
20260904113638 78 184 0.0 0.0 0.00 0.00 0.00 68 1013.3
20260904113137 78 184 0.0 0.0 0.00 0.00 0.00 67 1013.2
20260904112633 79 184 0.0 0.0 0.00 0.00 0.00 66 1013.3
20260904112129 79 184 1.0 1.0 0.00 0.00 0.00 65 1013.3
20260904111624 79 181 0.0 0.0 0.00 0.00 0.00 65 1013.3
20260904111119 79 178 1.0 0.0 0.00 0.00 0.00 65 1013.3
20260904110615 79 136 1.0 1.0 0.00 0.00 0.00 67 1013.3
20260904110115 79 136 0.0 0.0 0.00 0.00 0.00 67 1013.4
20260904105615 79 136 0.0 0.0 0.00 0.00 0.00 67 1013.4
20260904105109 79 91 0.0 0.0 0.00 0.00 0.00 67 1013.4
20260904104605 79 91 0.0 0.0 0.00 0.00 0.00 67 1013.4
20260904104100 79 91 0.0 0.0 0.00 0.00 0.00 67 1013.4
20260904103556 79 91 0.0 0.0 0.00 0.00 0.00 67 1013.6
20260904103052 79 91 0.0 0.0 0.00 0.00 0.00 67 1013.3
20260904102548 79 91 0.0 0.0 0.00 0.00 0.00 67 1013.4
20260904102043 78 103 1.0 1.0 0.00 0.00 0.00 68 1013.2
20260904101539 78 103 0.0 0.0 0.00 0.00 0.00 68 1013.5
20260904101034 78 103 0.0 0.0 0.00 0.00 0.00 68 1013.3
20260904100530 78 103 0.0 0.0 0.00 0.00 0.00 68 1013.3
20260904100025 78 103 0.0 0.0 0.00 0.00 0.00 68 1013.3
20260904095520 78 103 0.0 0.0 0.00 0.00 0.00 67 1013.2
20260904095015 78 103 0.0 0.0 0.00 0.00 0.00 67 1013.4
20260904094510 78 103 1.0 1.0 0.00 0.00 0.00 67 1013.3
20260904094005 78 105 0.0 0.0 0.00 0.00 0.00 66 1013.2
20260904093502 79 105 0.0 0.0 0.00 0.00 0.00 66 1013.2
20260904092956 79 107 0.0 0.0 0.00 0.00 0.00 65 1013.2
20260904092453 79 105 1.0 1.0 0.00 0.00 0.00 66 1013.2
20260904091949 78 92 0.0 0.0 0.00 0.00 0.00 66 1013.1
20260904091445 78 85 0.0 0.0 0.00 0.00 0.00 67 1013.1
20260904090944 78 85 0.0 0.0 0.00 0.00 0.00 66 1013.3
20260904090440 78 85 1.0 1.0 0.00 0.00 0.00 66 1013.1
20260904085935 79 84 0.0 0.0 0.00 0.00 0.00 66 1013.4
20260904085430 79 86 1.0 1.0 0.00 0.00 0.00 66 1013.2
20260904084925 78 87 1.0 1.0 0.00 0.00 0.00 66 1013.1
20260904084421 79 91 0.0 0.0 0.00 0.00 0.00 66 1013.2
20260904083916 78 120 1.0 1.0 0.00 0.00 0.00 67 1013.1
20260904083413 78 126 0.0 0.0 0.00 0.00 0.00 67 1013.2
20260904082909 79 126 0.0 0.0 0.00 0.00 0.00 67 1013.3
20260904082408 78 126 0.0 0.0 0.00 0.00 0.00 66 1013.2
20260904081904 79 126 0.0 0.0 0.00 0.00 0.00 66 1013.3
20260904081359 79 126 0.0 0.0 0.00 0.00 0.00 66 1013.3
20260904080855 79 126 0.0 0.0 0.00 0.00 0.00 65 1013.3
20260904080350 79 126 0.0 0.0 0.00 0.00 0.00 65 1013.4
20260904075846 79 126 0.0 0.0 0.00 0.00 0.00 66 1013.3
20260904075342 79 126 0.0 0.0 0.00 0.00 0.00 66 1013.4
20260904074840 79 126 0.0 0.0 0.00 0.00 0.00 66 1013.3
20260904074335 79 125 0.0 0.0 0.00 0.00 0.00 65 1013.3
20260904073831 79 125 0.0 0.0 0.00 0.00 0.00 65 1013.3
20260904073326 79 126 0.0 0.0 0.00 0.00 0.00 65 1013.3
20260904072822 79 126 0.0 0.0 0.00 0.00 0.00 65 1013.2
20260904072321 80 126 0.0 0.0 0.00 0.00 0.00 64 1013.2
20260904071817 80 126 0.0 0.0 0.00 0.00 0.00 63 1013.5
20260904071312 80 126 0.0 0.0 0.00 0.00 0.00 63 1013.5
20260904070807 81 127 1.0 1.0 0.00 0.00 0.00 62 1013.4
20260904070306 81 137 1.0 1.0 0.00 0.00 0.00 61 1013.4
20260904065801 81 145 1.0 0.0 0.00 0.00 0.00 60 1013.5
20260904065257 81 186 0.0 0.0 0.00 0.00 0.00 60 1013.4
20260904064757 81 201 0.0 0.0 0.00 0.00 0.00 60 1013.5
20260904064253 82 201 0.0 0.0 0.00 0.00 0.00 60 1013.5
20260904063749 82 195 1.0 1.0 0.00 0.00 0.00 59 1013.4
20260904063244 82 220 2.0 2.0 0.00 0.00 0.00 59 1013.5
20260904062740 82 196 1.0 1.0 0.00 0.00 0.00 59 1013.6
20260904062236 82 241 3.0 3.0 0.00 0.00 0.00 59 1013.5
20260904061731 81 177 2.0 3.0 0.00 0.00 0.00 59 1013.3
20260904061227 81 149 2.0 2.0 0.00 0.00 0.00 60 1013.6
20260904060724 80 87 0.0 0.0 0.00 0.00 0.00 61 1013.5
20260904060219 80 86 1.0 1.0 0.00 0.00 0.00 61 1013.5
20260904055714 80 85 0.0 0.0 0.00 0.00 0.00 61 1013.2
20260904055209 80 73 0.0 1.0 0.00 0.00 0.00 61 1013.4
20260904054704 80 82 0.0 0.0 0.00 0.00 0.00 62 1013.2
20260904054201 81 57 0.0 0.0 0.00 0.00 0.00 61 1013.2
20260904053655 81 57 0.0 0.0 0.00 0.00 0.00 61 1013.2
20260904053150 81 57 0.0 0.0 0.00 0.00 0.00 60 1013.2
20260904052647 81 57 0.0 0.0 0.00 0.00 0.00 60 1013.3
20260904052142 82 68 1.0 1.0 0.00 0.00 0.00 59 1013.2
20260904051639 82 85 1.0 1.0 0.00 0.00 0.00 59 1013.2
20260904051139 82 104 0.0 0.0 0.00 0.00 0.00 58 1013.3
20260904050634 82 113 2.0 2.0 0.00 0.00 0.00 58 1013.4
20260904050125 82 117 2.0 2.0 0.00 0.00 0.00 58 1013.4
20260904045625 82 132 1.0 1.0 0.00 0.00 0.00 57 1013.3
20260904045119 82 124 1.0 1.0 0.00 0.00 0.00 58 1013.5
20260904044615 82 116 1.0 1.0 0.00 0.00 0.00 58 1013.4
20260904044111 82 121 0.0 0.0 0.00 0.00 0.00 57 1013.3
20260904043608 82 84 0.0 0.0 0.00 0.00 0.00 57 1013.3
20260904043103 82 116 1.0 2.0 0.00 0.00 0.00 57 1013.4
20260904042559 82 82 0.0 0.0 0.00 0.00 0.00 57 1013.4
20260904042054 83 101 3.0 3.0 0.00 0.00 0.00 56 1013.5
20260904041549 83 104 1.0 1.0 0.00 0.00 0.00 56 1013.5
20260904041045 83 98 3.0 5.0 0.00 0.00 0.00 55 1013.6
20260904040545 84 102 1.0 1.0 0.00 0.00 0.00 55 1013.4
20260904040042 84 126 2.0 3.0 0.00 0.00 0.00 54 1013.3
20260904035537 84 106 0.0 0.0 0.00 0.00 0.00 54 1013.3
20260904035037 84 127 4.0 5.0 0.00 0.00 0.00 54 1013.1
20260904034531 84 130 1.0 1.0 0.00 0.00 0.00 54 1013.3
20260904034027 84 100 0.0 0.0 0.00 0.00 0.00 55 1013.3
20260904033523 84 110 2.0 2.0 0.00 0.00 0.00 55 1013.2
20260904033020 84 107 0.0 1.0 0.00 0.00 0.00 55 1013.0
20260904032515 84 124 1.0 1.0 0.00 0.00 0.00 55 1013.1
20260904032014 84 104 1.0 1.0 0.00 0.00 0.00 54 1013.0
20260904031509 84 119 3.0 3.0 0.00 0.00 0.00 54 1012.9
20260904031005 84 83 3.0 3.0 0.00 0.00 0.00 54 1012.8
20260904030501 84 74 2.0 2.0 0.00 0.00 0.00 54 1012.8
20260904025955 84 68 1.0 2.0 0.00 0.00 0.00 55 1012.5
20260904025452 84 92 2.0 2.0 0.00 0.00 0.00 54 1012.7
20260904024951 84 124 0.0 1.0 0.00 0.00 0.00 54 1012.5
20260904024447 84 114 3.0 3.0 0.00 0.00 0.00 54 1012.4
20260904023943 84 118 1.0 1.0 0.00 0.00 0.00 54 1012.2
20260904023439 84 111 1.0 2.0 0.00 0.00 0.00 54 1012.2
20260904022938 84 49 2.0 2.0 0.00 0.00 0.00 54 1012.4
20260904022435 84 88 0.0 0.0 0.00 0.00 0.00 55 1012.1
20260904021931 84 115 1.0 1.0 0.00 0.00 0.00 54 1012.1
20260904021426 84 245 4.0 8.0 0.00 0.00 0.00 54 1012.1
20260904020921 84 172 2.0 3.0 0.00 0.00 0.00 54 1011.8
20260904020416 85 150 3.0 5.0 0.00 0.00 0.00 54 1011.9
20260904015914 85 183 4.0 5.0 0.00 0.00 0.00 54 1011.8
20260904015411 85 222 4.0 6.0 0.00 0.00 0.00 53 1011.9
20260904014909 85 245 6.0 8.0 0.00 0.00 0.00 53 1011.4
20260904014404 85 211 7.0 9.0 0.00 0.00 0.00 52 1011.5
20260904013900 85 248 3.0 5.0 0.00 0.00 0.00 52 1011.5
20260904013356 85 232 3.0 5.0 0.00 0.00 0.00 52 1011.5
20260904012852 86 239 6.0 7.0 0.00 0.00 0.00 51 1011.5
20260904012346 86 160 6.0 9.0 0.00 0.00 0.00 50 1011.2
20260904011845 86 190 7.0 8.0 0.00 0.00 0.00 49 1011.3
20260904011340 87 258 5.0 6.0 0.00 0.00 0.00 49 1011.1
20260904010835 87 243 5.0 7.0 0.00 0.00 0.00 48 1011.3
20260904010332 88 202 5.0 7.0 0.00 0.00 0.00 47 1011.0
20260904005827 89 223 4.0 7.0 0.00 0.00 0.00 46 1011.3
20260904005322 89 172 3.0 5.0 0.00 0.00 0.00 48 1011.2
20260904004817 89 226 4.0 5.0 0.00 0.00 0.00 47 1011.2
20260904004314 89 189 4.0 5.0 0.00 0.00 0.00 47 1011.3
20260904003808 89 191 6.0 7.0 0.00 0.00 0.00 46 1011.3
20260904003305 89 197 3.0 3.0 0.00 0.00 0.00 46 1011.2
20260904002759 90 201 2.0 2.0 0.00 0.00 0.00 46 1011.0
20260904002256 91 240 6.0 8.0 0.00 0.00 0.00 44 1011.1
20260904001755 91 264 0.0 0.0 0.00 0.00 0.00 43 1011.1
20260904001250 91 339 1.0 1.0 0.00 0.00 0.00 43 1011.1
20260904000745 90 296 0.0 0.0 0.00 0.00 0.00 44 1011.3
20260904000240 90 292 2.0 2.0 0.00 0.00 0.00 43 1011.4
20260903235739 90 320 1.0 1.0 0.00 0.00 0.00 42 1011.2
20260903235235 89 300 3.0 5.0 0.00 0.00 0.00 46 1011.2
20260903234734 89 291 1.0 2.0 0.00 0.00 0.00 47 1011.3
20260903234231 89 291 5.0 6.0 0.00 0.00 0.00 47 1011.1
20260903233727 89 301 4.0 6.0 0.00 0.00 0.00 46 1011.3
20260903233223 89 298 1.0 1.0 0.00 0.00 0.00 47 1011.3
20260903232721 88 224 3.0 3.0 0.00 0.00 0.00 48 1011.1
20260903232218 90 125 1.0 1.0 0.00 0.00 0.00 52 1011.1
20260903231716 91 257 4.0 5.0 0.00 0.00 0.00 41 1011.2
20260903231212 92 253 4.0 5.0 0.00 0.00 0.00 40 1011.2
20260903230708 92 290 1.0 1.0 0.00 0.00 0.00 41 1011.1
20260903230202 92 290 1.0 1.0 0.00 0.00 0.00 41 1011.0
20260903225658 92 294 2.0 2.0 0.00 0.00 0.00 41 1011.2
20260903225154 92 341 2.0 2.0 0.00 0.00 0.00 41 1011.5
20260903224650 92 350 1.0 1.0 0.00 0.00 0.00 40 1011.3
20260903224147 93 310 3.0 3.0 0.00 0.00 0.00 40 1011.2
20260903223641 94 291 2.0 2.0 0.00 0.00 0.00 38 1011.1
20260903223140 94 312 1.0 2.0 0.00 0.00 0.00 39 1011.2
20260903222635 93 357 1.0 1.0 0.00 0.00 0.00 39 1011.2
20260903222133 92 290 0.0 0.0 0.00 0.00 0.00 40 1011.1
20260903221629 93 295 2.0 3.0 0.00 0.00 0.00 39 1011.2
20260903221127 93 260 1.0 2.0 0.00 0.00 0.00 39 1011.1
20260903220626 93 133 1.0 1.0 0.00 0.00 0.00 38 1011.5
20260903220127 93 131 1.0 1.0 0.00 0.00 0.00 38 1011.5
20260903215625 93 215 5.0 5.0 0.00 0.00 0.00 37 1011.5
20260903215120 95 299 2.0 2.0 0.00 0.00 0.00 36 1011.6
20260903214619 96 253 3.0 2.0 0.00 0.00 0.00 35 1011.6
20260903214115 95 122 3.0 5.0 0.00 0.00 0.00 36 1011.5
20260903213610 94 255 3.0 3.0 0.00 0.00 0.00 36 1011.7
20260903213105 94 230 2.0 2.0 0.00 0.00 0.00 37 1011.8
20260903212601 95 239 5.0 5.0 0.00 0.00 0.00 36 1011.8